Regional Weather Roundup
Issued by NWS Green Bay, WI

Home | Current Version | Previous Version | Text Only | Print | Product List | Glossary On
Versions: 1 2 3 4 5 6 7 8 9 10 11 12 13 14 15 16 17 18 19 20 21 22 23 24 25 26 27 28 29 30 31 32 33 34 35 36 37 38 39 40 41 42 43 44 45 46 47 48 49 50
000
ASUS43 KGRB 240611
RWRGRB

NORTH-CENTRAL AND NORTHEAST WISCONSIN REGIONAL WEATHER ROUNDUP
NATIONAL WEATHER SERVICE GREEN BAY WI
100 AM CDT MON APR 24 2017

WIZ005-009-010>012-018-019-240700-
NORTH CENTRAL WISCONSIN

CITY           SKY/WX    TMP DP  RH WIND       PRES   REMARKS
IRONWOOD       CLOUDY    32  25  75 E12       30.05S
MANITOWISH WTR PTCLDY    33  28  81 SE9       30.02F
ARBOR VITAE    CLEAR     37  28  71 SE15G21   30.01F
EAGLE RIVER    CLEAR     32  21  65 SE14      30.04F
LAND O LAKES   CLEAR     32  24  73 SE6       30.07S
RHINELANDER    CLEAR     36  27  69 E10       30.04F
PHILLIPS       PTCLDY    37  32  83 SE10G16   29.99F
ANTIGO         CLEAR     32  25  74 E10       30.07F
TOMAHAWK       CLEAR     35  28  78 SE8       30.04F
MERRILL        CLEAR     35  26  67 SE10      30.06S
$$

WIZ013-073-240700-
NORTHEAST WISCONSIN

CITY           SKY/WX    TMP DP  RH WIND       PRES   REMARKS
IRON MOUNTAIN  CLOUDY    31  17  56 E3        30.09F
MARINETTE      CLEAR     35  26  69 E14       30.14S
OCONTO         CLEAR     35  28  73 NE5       30.12S
$$

WIZ017-030-035>037-045-240700-
CENTRAL WISCONSIN

CITY           SKY/WX    TMP DP  RH WIND       PRES   REMARKS
MEDFORD        CLEAR     37  31  81 E12       30.01S
WAUSAU         PTCLDY    35  28  75 E10       30.04F
MOSINEE        PTCLDY    34  32  93 E13       30.05F
MARSHFIELD     PTCLDY    38  33  82 SE14      30.02S
WISC RAPIDS    PTCLDY    39  33  79 SE15G21   30.05S
STEVENS POINT  CLEAR     35  30  82 E14       30.06S
WAUPACA        CLEAR     39  28  64 E9        30.08F
SHAWANO        CLEAR     38  29  70 E12       30.11F
CLINTONVILLE   CLEAR     36  28  75 E7        30.10F
WAUTOMA        CLEAR     38  30  73 E8        30.07F
$$

WIZ038-039-048-051-240700-
FOX VALLEY

CITY           SKY/WX    TMP DP  RH WIND       PRES   REMARKS
NWS GREEN BAY  CLEAR     39  30  70 NE12      30.10F
APPLETON       CLEAR     36  27  69 E12       30.07F
OSHKOSH        CLEAR     40  30  67 E10       30.07F
FOND DU LAC    CLEAR     38  28  67 NE9       30.07F
$$

WIZ022-050-052-240700-
EAST CENTRAL WISCONSIN

CITY           SKY/WX    TMP DP  RH WIND       PRES   REMARKS
EPHRAIM        FAIR      34  27  77 NE8       30.11F
WASHINGTON ISL FAIR      33  25  73 NE6       30.13F
STURGEON BAY   CLEAR     36  27  69 E8        30.12F
MANITOWOC      CLEAR     38  29  70 NE8       30.09F
SHEBOYGAN      CLEAR     37  31  78 NE10      30.07F
$$

LMZ563-521-522-541>543-240700-
LAKESHORE

STATION/POSITION TIME  TEMP    WIND        PRES    VSBY  WAVE
                       AIR SEA DIR/SP/G                  HT/PER
                 (UTC) (F)     (DEG/KT/KT) (MB)    (MI)  (FT/S)
SHEBOYGAN LKSHOR 0600   39      10/ 19/ 21 1018.7F
KEWAUNEE LKSHORE 0548           50/ 14/ 19 1019.0F
NORTHPORT PIER   0540   36      60/ 11/ 13 1020.3F
N MID LAKE BUOY  0550   35 37   60/ 17/ 19 1021.4F         2/ 4
CHAMBERS ISLAND  0540   36      30/ 15/ 17 1020.0S
MENOMINEE LKSHOR 0548           40/ 16/ 21 1019.5F
$$



USA.gov is the U.S. government's official web portal to all federal, state and local government web resources and services.